Miscellaneous Local Product
Issued by NWS Hastings, NE

Home | Current Version | Previous Version | Graphics & Text | Print | Product List | Glossary On
Versions: 1 2 3 4 5 6 7 8 9 10 11 12 13 14 15 16 17 18 19 20 21 22 23 24 25 26 27 28 29 30 31 32 33 34 35 36 37 38 39 40 41 42 43 44 45 46 47 48 49 50
000
AXUS43 KGID 280502
MISGRI

GID CWA HOURLY WEATHER ROUNDUP
NATIONAL WEATHER SERVICE HASTINGS NE
1100 PM CST SAT DEC 27 2014

NOTE: "FAIR" INDICATES FEW OR NO CLOUDS BELOW 12,000 FEET WITH NO
SIGNIFICANT WEATHER AND/OR OBSTRUCTIONS TO VISIBILITY.

...SOUTH CENTRAL NEBRASKA...

CITY           SKY/WX    TMP DP  RH WIND       PRES   REMARKS
GRAND ISLAND     N/A     15  10  80 W12       30.19S WCI   2
HASTINGS       CLEAR     13   8  81 SW7       30.18R WCI   3
KEARNEY        CLEAR     16   9  73 SW7       30.18S WCI   6
ORD            PTCLDY     6   4  91 CALM      30.13F
YORK           CLEAR     12  10  92 SW8       30.19S WCI   1
AURORA         CLEAR     15  11  86 W12       30.18S WCI   1
LEXINGTON      PTCLDY     6   3  88 NW3       30.17S
HOLDREGE       CLEAR     18  12  77 W9        30.18S WCI   7
HEBRON         FAIR      19  13  79 SW3       30.22F

...NEBRASKA PANHANDLE...

CITY           SKY/WX    TMP DP  RH WIND       PRES   REMARKS
CHADRON        CLEAR      4   0  83 W5        30.08F WCI  -5
ALLIANCE       MOCLDY     0  -4  83 W5        30.07S WCI -10
SCOTTSBLUFF    MOCLDY     2  -1  88 N7        30.09S WCI -11
SIDNEY         MOCLDY     3  -3  76 NW14      30.09S WCI -15

...WESTERN AND NORTH CENTRAL NEBRASKA...

CITY           SKY/WX    TMP DP  RH WIND       PRES   REMARKS
VALENTINE      PTCLDY     5   1  83 SW7       30.09S WCI  -7
AINSWORTH      CLEAR     11   6  78 SW10      30.08F WCI  -2
ONEILL         CLEAR     10   9  94 SW5       30.10F WCI   2
BROKEN BOW     CLEAR     16   8  71 W8        30.13S WCI   5
IMPERIAL       PTCLDY     7   1  76 NW5       30.14F WCI  -2
NORTH PLATTE   PTCLDY     1  -2  87 NW5       30.15S WCI  -9
MCCOOK         CLEAR      8   5  87 W7        30.18F WCI  -3

...EASTERN NEBRASKA...

CITY           SKY/WX    TMP DP  RH WIND       PRES   REMARKS
NORFOLK        CLEAR     15  10  80 SW8       30.15S WCI   4
SO SIOUX CITY  CLEAR      7   4  87 E7        30.20R WCI  -5
TEKAMAH        CLEAR     14  10  84 S3        30.21F
COLUMBUS       CLEAR      7  -2  66 NW5       30.19S WCI  -2
ALBION         PTCLDY    15  11  82 NW3       30.16S
OMAHA EPPLEY   CLEAR     19  15  84 S3        30.24F
OFFUTT AFB     CLEAR     18  15  88 S5        30.23F WCI  11
MILLARD        CLEAR     18  15  89 CALM      30.23F
LINCOLN        CLEAR     15  11  83 S5        30.24F WCI   8
NEBRASKA CITY  CLEAR     17  13  83 S3        30.24S
BEATRICE       CLEAR     16  13  88 W5        30.23F WCI   9
FALLS CITY     CLEAR     20  16  84 W7        30.26F WCI  11

...NORTHERN KANSAS...

CITY           SKY/WX    TMP DP  RH WIND       PRES   REMARKS
GOODLAND       PTCLDY    16   9  74 SW10      30.15S WCI   4
HILL CITY      CLEAR     14   9  80 W9        30.22F WCI   2
NORTON         CLEAR     14   7  73 W8        30.19S WCI   3
PHILLIPSBURG   CLEAR     18  12  79 W6        30.22S WCI   9
BELOIT         CLEAR     18  14  86 CALM      30.25F
HAYS           CLEAR     16   3  57 SW3       30.24S
RUSSELL        CLEAR     17  14  88 SW8       30.24S WCI   7
CONCORDIA      CLEAR     20  15  81 SW6       30.24F WCI  12
SALINA         CLEAR     21  15  78 SW8       30.29S WCI  11
TOPEKA         CLEAR     24  18  77 CALM      30.29S



USA.gov is the U.S. government's official web portal to all federal, state and local government web resources and services.